Regional Weather Roundup
Issued by NWS Wakefield, VA

Home | Current Version | Previous Version | Text Only | Print | Product List | Glossary Off
Versions: 1 2 3 4 5 6 7 8 9 10 11 12 13 14 15 16 17 18 19 20 21 22 23 24 25 26 27 28

000
ASUS41 KAKQ 231616
RWRAKQ

REGIONAL WEATHER ROUNDUP
NATIONAL WEATHER SERVICE WAKEFIELD VA
1200 PM EDT MON OCT 23 2017

Note: "fair" indicates few or no clouds below 12,000 feet with no
significant weather and/or obstructions to visibility. * = Denotes
station may not report precipitation (e.g., rain,snow,etc.),
thunder or fog.

VAZ042-051-052>054-056-231700-
NORTHERN VIRGINIA

CITY           SKY/WX    TMP DP  RH WIND       PRES   REMARKS
WASH NATIONAL  CLOUDY    72  66  81 S6        30.16F
DULLES         PTSUNNY   69  63  81 SE12      30.15F
FORT BELVOIR   CLOUDY    70  65  85 SE6       30.15F
QUANTICO       PTSUNNY   69  65  86 CALM      30.15F
FREDERICKSBRG* CLOUDY    73  64  73 SE8       30.13F
STAFFORD*      CLOUDY    70  66  87 SE5       30.18F
WARRENTON      PTSUNNY   72  59  64 SE8       30.14F
CULPEPER*      MOSUNNY   70  61  74 S3        30.14F
MANASSAS*      CLOUDY    70  63  78 SE12      30.15F
LEESBURG*      CLOUDY    68  63  83 SE7       30.16F
WINCHESTER     PTSUNNY   64  59  82 SE10      30.13F
FRONT ROYAL*   MOSUNNY   70  59  68 SE10G17   30.11F
LURAY*         CLOUDY    72  59  64 SE6       30.11F
$$

VAZ048-049-060>072-079>083-231700-
CENTRAL AND SOUTH CENTRAL VIRGINIA

CITY           SKY/WX    TMP DP  RH WIND       PRES   REMARKS
RICHMOND       CLOUDY    76  63  64 SE17      30.13F
CHESTERFIELD*  NOT AVBL
PETERSBURG*    MOSUNNY   76  64  67 SE9       30.14F
HANOVER        CLOUDY    75  64  68 VRB6      30.14F
TAPPAHANNOCK*  CLOUDY    77  62  59 SE8       30.16F
QUINTON*       FAIR      75  65  70 SE9G18    30.14F
CHARLOTTSVILLE CLOUDY    70  60  70 S7        30.12F
GORDONSVILLE*  MOSUNNY   72  60  66 SE7       30.12F
ORANGE*        CLOUDY    70  59  68 E7        30.13F
LOUISA*        CLOUDY    72  59  64 SE6       30.12F
BUMPASS*       FAIR      72  64  75 S7        30.13F
FARMVILLE*     CLOUDY    73  63  71 SE5       30.10F
CREWE*         PTSUNNY   73  63  71 SE10      30.12F
FORT PICKETT*  FAIR      73  64  72 S12       30.12F
CHASE CITY*    CLOUDY    70  64  80 SE7       30.11F
CLARKSVILLE*   CLOUDY    68  63  83 E6        30.10F
SOUTH HILL*    CLOUDY    73  63  72 SE7       30.17F
LAWRENCEVILLE* FAIR      75  62  62 SE8       30.12F
EMPORIA*       MOSUNNY   75  61  60 SE13G21   30.14F
$$

VAZ088>098-231700-
SOUTHEAST VIRGINIA

CITY           SKY/WX    TMP DP  RH WIND       PRES   REMARKS
NORFOLK        MOSUNNY   80  64  58 SE15      30.15F
VIRGINIA BEACH PTSUNNY   77  62  59 S14G24    30.15F
NORFOLK NAVAL  PTSUNNY   78  62  57 S14G23    30.16F
WEST POINT*    MOSUNNY   76  68  77 SE10      30.16F
SALUDA*        FAIR      76  66  72 SE8       30.16F
NEWPORT NEWS   MOSUNNY   77  64  64 S12       30.15F
LANGLEY AFB    PTSUNNY   77  66  68 SE8       30.15F
FORT EUSTIS    MOSUNNY   78  64  63 SE10      30.12F
WILLIAMSBURG*  SUNNY     79  66  65 SE10      30.15F
HR EXEC AP*    NOT AVBL
FRANKLIN*      MOSUNNY   77  61  57 SE13      30.14F
US460-WAKEFLD  MOSUNNY   76  64  66 SE9G21    30.14F
$$

VAZ020-022-025-037-045-231700-
WEST CENTRAL AND SOUTHWEST VIRGINIA

CITY           SKY/WX    TMP DP  RH WIND       PRES   REMARKS
STAUNTON*      CLOUDY    68  56  64 SE9       30.12F
WAYNESBORO*    CLOUDY    63  58  86 E9        30.12F
HOT SPRINGS VA RAIN      55  55 100 E9G20     30.11F VSB<1/4
LYNCHBURG      LGT RAIN  63  61  93 SE13      30.09F FOG
DANVILLE       CLOUDY    65  65 100 VRB6      30.07F
SOUTH BOSTON*  CLOUDY    66  65  95 E5        30.09F
MARTINSVILLE   LGT RAIN  64  63  96 SE8       30.05F
ROANOKE        LGT RAIN  62  62 100 SE13      30.06F FOG
BLACKSBURG     LGT RAIN  61  61  99 E8        30.05F
DUBLIN*        LGT RAIN  62  62  99 E12       30.02F
MARION*        CLOUDY    64  60  89 E8        30.00F
HILLSVILLE*    RAIN      61  57  86 CALM      30.00F
RICHLANDS*     DRIZZLE   64  55  74 SE9       29.93F
WISE*          RAIN      61  61 100 SE7       29.89F
ABINGDON*      LGT RAIN  70  61  73 S12G20    29.89F
$$

MDZ021>025-VAZ099-100-231700-
SOUTHERN MARYLAND AND THE DELMARVA PENINSULA

CITY           SKY/WX    TMP DP  RH WIND       PRES   REMARKS
PATUXENT RIVER CLOUDY    74  67  78 SE12      30.16F
BAY BRIDGE APT PTSUNNY   72  64  78 SE8       30.18F
LEONARDTOWN    NOT AVBL
DOVER          PTSUNNY   72  66  83 SE13      30.19F
GEORGETOWN     MOSUNNY   76  65  68 SE12      30.20F
EASTON         PTSUNNY   75  64  69 S8        30.21F
CAMBRIDGE      SUNNY     75  64  69 SE12      30.18F
SALISBURY      PTSUNNY   75  66  73 SE7       30.19F
OCEAN CITY     PTSUNNY   71  67  87 VRB5      30.21F
WALLOPS ISLAND CLOUDY    72  68  87 SE10      30.19F
ACCOMACK*      CLOUDY    75  65  72 SE10      30.18F
$$

NCZ012>017-030>032-231700-
NORTH CENTRAL AND EASTERN NORTH CAROLINA

CITY           SKY/WX    TMP DP  RH WIND       PRES   REMARKS
ROANOKE RAPIDS PTSUNNY   73  63  68 SE8G21    30.13F
RALEIGH        CLOUDY    69  66  90 SE8       30.09F
ELIZABETH CITY SUNNY     79  63  57 S12       30.16F
AHOSKIE*       MOSUNNY   76  63  65 SE13      30.14F
EDENTON*       SUNNY     81  66  61 SE12      30.16F
CURRITUCK*     MOSUNNY   78  63  60 S6        30.18F
KILL DEVIL HLS SUNNY     78  63  59 S8        30.16F
MANTEO         SUNNY    N/A N/A N/A S9        30.17F
CAPE HATTERAS  SUNNY     81  69  67 SE12      30.16F
TARBORO*       NOT AVBL
GOLDSBORO      MOSUNNY   79  64  59 SE12      30.08F
WASHINGTON     SUNNY     79  65  60 SE13      30.14F
GREENVILLE     MOSUNNY   79  64  61 SE15      30.13F
NEW BERN       MOSUNNY   80  66  62 S12G20    30.14F
WILMINGTON     MOSUNNY   78  63  59 SE14G22   30.11F
$$

VAZ048-231700-
ELSEWHERE

CITY           SKY/WX    TMP DP  RH WIND       PRES   REMARKS
HARRISBURG PA  CLOUDY    67  61  81 SE8       30.17F
BALTIMORE      CLOUDY    71  65  81 SE10      30.16F
ANNAPOLIS      PTSUNNY   70  69  97 SE6       30.17F
ANDREWS AFB    CLOUDY    68  68 100 SE8       30.16F
PHILADELPHIA   CLOUDY    73  64  73 SE12      30.21F
HENDERSON NC   PTSUNNY   66  61  84 SE5       30.11F
GREENSBORO     DRIZZLE   67  67 100 SE18G28   30.03F FOG
ROCKY MOUNT    CLOUDY    76  65  68 SE10G18   30.11F
$$

VAZ100-231700-
MARINE

STATION/POSITION TIME  TEMP    WIND        PRES    WAVE   SWELL
                       AIR SEA DIR/SP/G            HT/PER HT/PER
                 (UTC) (F)     (DEG/KT/KT) (MB)    (FT/S) (FT/S)
BRANDYWINE LGT   1548   70     160/ 15/ 16 1023.3F
CAPE MAY NJ      1548   70 67  130/ 15/ 20 1022.4F
LEWES DE         1548   72 67  160/ 10/ 14 1022.6F
15NM E FENWICK I 1550   69 68  120/ 14/ 16 1023.3F   3/ 9   2/ 9
OCEAN-CITY-INLET 1548   70 68  160/ 10/ 13 1023.4F
WACHAPREAGUE VA  1548   72 69  130/  8/ 11 1022.1F
THOMAS POINT MD  1600   69 68  130/  4/  5   N/A
GOOSES REEF MD   1600   69 69  150/  8/ 10 1026.0    1/ 3
COVE POINT MD    1548   69     160/ 16/ 18 1022.2F
SOLOMONS ISLAND  1548   71 69  130/ 13/ 16 1020.9F
BISHOPS HEAD MD  1548   70 68  130/  7/  8 1022.3F
PINEY POINT MD   1542          150/ 12/ 13   N/A
POTOMAC MD       1600   70 69  140/ 10/ 12 1020.9    1/ 2
CAMBRIDGE MD     1542   74 68              1022.8F
LEWISETTA VA     1548   73 68  160/ 12/ 14 1021.1F
RAPPAHANNOCK LGT 1548          130/  9/ 11 1022.4F
STINGRAY PT      1600   71 69  150/  8/ 10 1021.6    1/ 2
YORK RVR RNG VA  1542   71     150/ 12/ 14 1021.8F
YORKTOWN VA      1548   74 70  140/  9/ 13 1020.7F
JAMESTOWN VA     1600      70  140/ 12/ 14   N/A
DOMINION TERM VA 1548   74     150/ 13/ 18 1021.2F
KIPTOPEKE VA     1548      69  150/ 13/ 16   N/A
CAPE HENRY VA    1548   74     150/ 11/ 15   N/A
WILLOUBY STN VA  1548   76     180/ 18/ 22 1020.8F
S CRANEY ISL VA  1548   75     170/ 14/ 18 1020.9F
CAPE HENRY BUOY  1600      70                N/A     2/ 9
1ST LANDING BUOY 1600   72 70              1021.2    1/ 3
CAPE CHARLES BUO 1551      70                N/A     2/ 9
64NM E OF VA BCH 1550   72 69  160/  6/  8 1022.9F   3/ 9   3/ 9
DUCK PIER NC     1548   74 70  120/ 11/ 12 1021.2F
44100 DUCK FRF   1455      71                N/A     3/25   2/25
44056 DUCK FRF   1500      71                N/A     3/ 8
OREGON INLET NC  1542   77 71  120/  8/ 13 1021.6F
HATTERAS NC      1548   78 73  140/  9/ 12 1021.3F
DIAMOND SHLS NC  1550   78 81  130/ 19/ 23 1021.0F   3/ 8   2/ 8
CAPE LOOKOUT NC  1600   76     140/ 10/ 12 1020.3F
$$




USA.gov is the U.S. government's official web portal to all federal, state and local government web resources and services.